Home > Weather > Malabo > Past weeks

Flag for Equatorial Guinea Past Weather in Malabo, Equatorial Guinea — Yesterday and Last 2 Weeks

Now
79 °F

Thunderstorms. Passing clouds.


Feels Like: 82 °F
Forecast: 73 / 83 °F
Wind: 5 mph from Southwest

Location: Malabo/Fernando Poo

Current Time: May 31, 2016 at 9:12:09 PM

Latest Report: May 31, 2016 at 8:00 PM


Visibility: N/A

Pressure: 29.86 "Hg

Humidity: 84%

Dew Point: 73 °F

Location of MalaboLocation

Past Weather in Malabo — Graph

°F

Malabo Temperature Yesterday

Maximum temperature yesterday: 86 °F (at 10:00 AM)
Minimum temperature yesterday: 72 °F (at 1:00 AM)
Average temperature yesterday: 79 °F

High & Low Weather Summary for the Past Weeks

 TemperatureHumidityPressure
High90 °F (May 21, 2:00 PM)94% (May 17, 5:00 AM)30.07 "Hg (May 17, 5:00 AM)
Low72 °F (May 30, 1:00 AM)62% (May 19, 10:00 AM)29.80 "Hg (May 21, 4:00 PM)
Average80 °F85%29.93 "Hg
* Reported May 16 7:00 PM — May 31 7:00 PM, Malabo, Weather by CustomWeather, © 2016

Note: Actual official high and low records may vary slightly from our data, if they occured in-between our weather recording intervals... More about our weather records

Advertising

Malabo Weather History for the Previous 24 Hours

Scroll right to see more
 ConditionsComfort  
Time TempWeatherWind HumidityBarometerVisibility
7:00 PM
Tue, May 31
81 °FPassing clouds.7 mph84%29.86 "HgN/A
6:00 PM84 °FPassing clouds.7 mph70%29.86 "HgN/A
5:00 PM86 °FPassing clouds.6 mph70%29.86 "HgN/A
4:00 PM86 °FPassing clouds.3 mph75%29.86 "HgN/A
3:00 PM86 °FPassing clouds.5 mph66%29.86 "HgN/A
2:00 PM84 °FPassing clouds.6 mph79%29.89 "HgN/A
1:00 PM88 °FPassing clouds.6 mph66%29.92 "HgN/A
12:00 PM84 °FBroken clouds.8 mph74%29.95 "HgN/A
11:00 AM86 °FPartly sunny.5 mph70%29.95 "HgN/A
10:00 AM84 °FPartly sunny.6 mph74%29.95 "HgN/A
9:00 AM84 °FPassing clouds.2 mph74%29.95 "HgN/A
8:00 AM79 °FPassing clouds.2 mph84%29.95 "HgN/A
7:00 AM73 °FPassing clouds.2 mph89%29.92 "HgN/A
6:00 AM72 °FPassing clouds.2 mph94%29.89 "HgN/A
5:00 AM72 °FPassing clouds.No wind94%29.89 "HgN/A
4:00 AM72 °FPassing clouds.5 mph94%29.89 "HgN/A
3:00 AM72 °FPassing clouds.2 mph94%29.89 "HgN/A
2:00 AM73 °FPassing clouds.3 mph94%29.89 "HgN/A
1:00 AM73 °FPassing clouds.No wind94%29.92 "HgN/A
12:00 AM73 °FPassing clouds.3 mph94%29.92 "HgN/A
11:00 PM
Mon, May 30
75 °FPassing clouds.2 mph89%29.95 "HgN/A
10:00 PM75 °FPassing clouds.No wind94%29.95 "HgN/A
9:00 PM77 °FPassing clouds.3 mph89%29.92 "HgN/A
Weather by CustomWeather, © 2016

See weather overviewHow to use our weather pages